Terminal Aerodrome Forecast
Issued by NWS Charleston, WV

Current Version | Previous Version | Graphics & Text | Print | Product List | Glossary On
Versions: 1 2 3 4 5 6 7 8 9 10 11 12 13 14 15 16 17 18 19 20 21 22 23
715
FTUS41 KRLX 241730
TAFBKW
TAF
KBKW 241730Z 2418/2518 28007G15KT P6SM SCT040
     FM242300 30007KT P6SM SCT090
     FM250900 VRB03KT P6SM SCT024
     FM251300 30005KT P6SM SCT040=

USA.gov is the U.S. government's official web portal to all federal, state and local government web resources and services.